User: anonymous   Login
Location: Bergnerzell
(49.1816°N, 10.2565°E)
Time: 04:49:30
(UTC+00:00)
Language:

Cosmos 2221 Rocket - Orbit

View from above orbital plane
View from above orbital plane
View from above satellite
View from above satellite

Ground track
Ground track

The orbit data is extracted from the following two-line orbital elements,

1 22237U 92080B   24194.55628266  .00000521  00000-0  66654-4 0  9994
2 22237  82.5101 234.6473 0020281  42.0021 318.2742 14.79382352704930
Epoch (UTC): 12 July 2024 13:21:02
Eccentricity: 0.0020281
inclination: 82.5101°
perigee height: 617 km
apogee height: 645 km
right ascension of ascending node: 234.6473°
argument of perigee: 42.0021°
revolutions per day: 14.79382352
mean anomaly at epoch: 318.2742°
orbit number at epoch: 70493

The dashed part of the orbit path shows where the satellite is in the earth's shadow,  

DLR